GW0579 Weather Reports


time (UTC)temp
C
wind
direction
speed
KPH
gust
KPH
rain 1hr
cm
rain 24hr
cm
rain mn
cm
humidity
%
barometer
mb
20260505101004 12 315 0.0 1.6 0.00 0.00 0.00 90 1014.0
20260505100006 12 315 0.0 1.6 0.00 0.00 0.00 90 1014.0
20260505095004 11 315 0.0 0.0 0.00 0.00 0.00 91 1013.9
20260505094003 11 315 0.0 0.0 0.00 0.00 0.00 91 1013.9
20260505093004 11 315 0.0 0.0 0.00 0.00 0.00 91 1013.7
20260505092004 11 315 0.0 0.0 0.00 0.00 0.00 91 1013.7
20260505091004 11 315 0.0 1.6 0.00 0.00 0.00 91 1013.6
20260505090006 11 315 0.0 3.2 0.00 0.00 0.00 92 1013.6
20260505085003 11 315 0.0 0.0 0.00 0.00 0.00 92 1013.4
20260505083004 11 315 0.0 0.0 0.00 0.00 0.00 93 1013.3
20260505082003 11 315 0.0 0.0 0.00 0.00 0.00 93 1013.3
20260505081004 10 315 0.0 0.0 0.00 0.00 0.00 92 1013.4
20260505080011 10 315 0.0 0.0 0.00 0.00 0.00 92 1013.4
20260505074006 11 315 0.0 0.0 0.00 0.00 0.00 90 1013.3
20260505073006 11 315 0.0 0.0 0.00 0.00 0.00 90 1013.1
20260505072007 11 315 0.0 0.0 0.00 0.00 0.00 89 1013.2
20260505071006 11 315 0.0 0.0 0.00 0.00 0.00 89 1013.0
20260505070011 11 315 0.0 0.0 0.00 0.00 0.00 89 1012.7
20260505065008 11 315 0.0 0.0 0.00 0.00 0.00 89 1012.6
20260505064007 11 315 0.0 1.6 0.00 0.00 0.00 88 1012.6
20260505062006 11 315 0.0 0.0 0.00 0.00 0.00 87 1012.3
20260505061007 12 315 0.0 1.6 0.00 0.00 0.00 86 1012.2
20260505060007 12 315 0.0 0.0 0.00 0.00 0.00 86 1012.3
20260505055006 12 315 0.0 0.0 0.00 0.00 0.00 85 1012.2
20260505054007 12 315 0.0 1.6 0.00 0.00 0.00 84 1012.1
20260505053005 12 315 0.0 0.0 0.00 0.00 0.00 84 1012.2
20260505051006 13 315 0.0 1.6 0.00 0.00 0.00 83 1012.1
20260505041005 15 300 1.6 4.8 0.00 0.00 0.00 77 1011.5
20260505040008 15 20 1.6 8.0 0.00 0.00 0.00 76 1011.4
20260505035006 15 316 1.6 4.8 0.00 0.00 0.00 75 1011.3
20260505034006 16 5 3.2 12.9 0.00 0.00 0.00 74 1011.2
20260505033005 16 291 3.2 9.7 0.00 0.00 0.00 73 1011.0
20260505032006 16 290 4.8 11.3 0.00 0.00 0.00 71 1010.8
20260505031005 17 329 3.2 12.9 0.00 0.00 0.00 70 1010.8
20260505030008 17 276 4.8 14.5 0.00 0.00 0.00 68 1010.7
20260505025005 18 342 3.2 12.9 0.00 0.00 0.00 67 1010.4
20260505024005 18 289 1.6 3.2 0.00 0.00 0.00 67 1010.2
20260505022006 20 244 4.8 14.5 0.00 0.00 0.00 61 1010.2
20260505021005 20 310 3.2 12.9 0.00 0.00 0.00 60 1010.1
20260505020009 21 306 4.8 12.9 0.00 0.00 0.00 57 1010.0
20260505014005 22 321 4.8 8.0 0.00 0.00 0.00 55 1010.1
20260505013005 22 331 6.4 22.5 0.00 0.00 0.00 54 1010.0
20260505012006 23 5 4.8 14.5 0.00 0.00 0.00 55 1010.0
20260505011005 23 303 3.2 6.4 0.00 0.00 0.00 53 1009.9
20260505010008 23 26 4.8 22.5 0.00 0.00 0.00 53 1010.0
20260505005005 24 253 6.4 17.7 0.00 0.00 0.00 51 1009.8
20260505004005 24 325 4.8 14.5 0.00 0.00 0.00 51 1009.8
20260505003005 25 264 4.8 17.7 0.00 0.00 0.00 50 1009.8
20260505002006 25 5 6.4 17.7 0.00 0.00 0.00 49 1009.8
20260505000008 26 348 3.2 12.9 0.00 0.00 0.00 47 1009.6
20260504234006 27 300 3.2 14.5 0.00 0.00 0.00 46 1009.7
20260504233005 27 337 4.8 16.1 0.00 0.00 0.00 47 1009.8
20260504232006 27 304 4.8 16.1 0.00 0.00 0.00 47 1009.8
20260504231005 27 325 4.8 16.1 0.00 0.00 0.00 46 1009.9
20260504230008 27 268 4.8 16.1 0.00 0.00 0.00 47 1009.8
20260504225007 27 329 4.8 14.5 0.00 0.00 0.00 48 1010.1
20260504223005 26 268 4.8 12.9 0.00 0.00 0.00 49 1010.3
20260504222006 26 277 3.2 16.1 0.00 0.00 0.00 51 1010.4
20260504221005 26 340 4.8 12.9 0.00 0.00 0.00 51 1010.3
20260504220006 26 323 4.8 16.1 0.00 0.00 0.00 50 1010.3
20260504215005 26 360 4.8 16.1 0.00 0.00 0.00 52 1010.3
20260504214004 26 333 4.8 12.9 0.00 0.00 0.00 51 1010.5
20260504213005 26 15 4.8 12.9 0.00 0.00 0.00 50 1010.6
20260504212004 26 5 4.8 9.7 0.00 0.00 0.00 54 1010.6
20260504211004 26 305 3.2 9.7 0.00 0.00 0.00 53 1010.7
20260504210006 26 27 4.8 12.9 0.00 0.00 0.00 52 1010.7
20260504205004 26 15 3.2 11.3 0.00 0.00 0.00 53 1010.8
20260504204004 25 231 4.8 9.7 0.00 0.00 0.00 54 1010.9
20260504203004 25 318 3.2 8.0 0.00 0.00 0.00 59 1011.1
20260504202005 25 319 4.8 12.9 0.00 0.00 0.00 56 1011.1
20260504201005 25 289 3.2 11.3 0.00 0.00 0.00 55 1011.2
20260504200007 25 272 1.6 4.8 0.00 0.00 0.00 57 1011.1
20260504195004 24 343 3.2 9.7 0.00 0.00 0.00 56 1011.1
20260504194004 24 330 1.6 6.4 0.00 0.00 0.00 59 1011.3
20260504193005 23 311 3.2 11.3 0.00 0.00 0.00 57 1011.3
20260504192005 23 340 3.2 8.0 0.00 0.00 0.00 58 1011.5
20260504191004 23 27 3.2 8.0 0.00 0.00 0.00 58 1011.6
20260504190008 23 102 1.6 4.8 0.00 0.00 0.00 58 1011.6
20260504185005 23 113 3.2 6.4 0.00 0.00 0.00 58 1011.7
20260504184006 23 24 1.6 4.8 0.00 0.00 0.00 59 1011.8
20260504183004 23 36 1.6 4.8 0.00 0.00 0.00 61 1011.6
20260504182004 22 36 1.6 4.8 0.00 0.00 0.00 60 1011.7
20260504181004 22 38 3.2 8.0 0.00 0.00 0.00 60 1011.8
20260504180007 22 233 1.6 8.0 0.00 0.00 0.00 61 1011.8
20260504175005 21 107 1.6 9.7 0.00 0.00 0.00 63 1011.8
20260504173005 21 36 1.6 6.4 0.00 0.00 0.00 64 1011.8
20260504172004 21 96 3.2 6.4 0.00 0.00 0.00 64 1011.8
20260504171004 20 94 1.6 6.4 0.00 0.00 0.00 63 1011.7
20260504151005 12 111 0.0 1.6 0.00 0.00 0.00 87 1011.1
20260504141004 10 111 0.0 0.0 0.00 0.00 0.00 93 1010.8